Regional Weather Roundup
Issued by NWS Huntsville, AL

Home | Current Version | Previous Version | Text Only | Print | Product List | Glossary On
Versions: 1 2 3 4 5 6 7 8 9 10 11 12 13 14 15 16 17 18 19 20 21 22 23 24 25 26 27 28 29 30 31 32 33 34 35 36 37 38 39 40 41 42 43 44 45 46 47 48 49 50
000
ASUS44 KHUN 160824
RWRHUN

WEATHER ROUNDUP FOR THE TENNESSEE VALLEY
NATIONAL WEATHER SERVICE HUNTSVILLE AL
300 AM CDT WED APR 16 2014

ALZ001>004-160900-
NORTHWEST ALABAMA

CITY           SKY/WX    TMP DP  RH WIND       PRES   REMARKS
COURTLAND HCN    N/A     37 N/A N/A NE5         N/A  WCI  34
RUSSELLVILLE     N/A     28 N/A N/A MISG        N/A
SHOALS AIRPORT CLEAR     39  23  52 NE7       30.26S WCI  34
SHOALS TVA RES   N/A     37 N/A N/A MISG        N/A
$$

ALZ005>007-016-160900-
NORTH CENTRAL ALABAMA

CITY           SKY/WX    TMP DP  RH WIND       PRES   REMARKS
CULLMAN AG STN   N/A     34 N/A N/A NE3         N/A
DECATUR AP     CLEAR     35  25  66 N7        30.26S WCI  29
HUNTSVILLE AP  CLEAR     35  25  66 NE8       30.24F WCI  29
HUN NWS/UAH      N/A     35  23  61 N3          N/A
MERIDIANVILLE  CLEAR     30  27  86 CALM      30.24S
VINEMONT AP    FAIR      33  24  68 N9        30.23S WCI  25
$$

ALZ008>010-160900-
NORTHEAST ALABAMA

CITY           SKY/WX    TMP DP  RH WIND       PRES   REMARKS
ALBERTVILLE    CLEAR     34  30  86 N6        30.18F WCI  29
CROSSVILLE       N/A     32 N/A N/A CALM        N/A
FORT PAYNE     CLEAR     32  25  74 CALM      30.20S
SCOTTSBORO AP  CLEAR     32  27  80 NE3       30.24S
SCOTTSBORO HCN   N/A     32 N/A N/A MISG        N/A
VALLEY HEAD      N/A     28 N/A N/A MISG        N/A
$$

TNZ076-096-097-160900-
SOUTHEASTERN MIDDLE TENNESSEE

CITY           SKY/WX    TMP DP  RH WIND       PRES   REMARKS
FAYETTEVILLE   FAIR      30  22  72 N9        30.23F WCI  22
TULLAHOMA      CLEAR     30  21  69 N6        30.24S WCI  24
WINCHESTER     CLEAR     27  27 100 CALM      30.24F
$$

...SURROUNDING SITES...

CITY           SKY/WX    TMP DP  RH WIND       PRES   REMARKS
ATLANTA        CLEAR     35  27  72 NW8       30.14R WCI  29
ANNISTON       CLEAR     37  26  64 NE7       30.20R WCI  32
BIRMINGHAM     CLEAR     37  24  59 NE7G17    30.22S WCI  32
CHATTANOOGA    CLEAR     37  24  59 N10       30.24R WCI  30
CORINTH        FAIR      32  28  86 CALM      30.25S
DALTON         PTCLDY    34  27  75 N14G22    30.20S WCI  24
GADSDEN        NOT AVBL
GOLDEN TRNGL   CLEAR     36  27  69 NE7       30.25R WCI  30
HALEYVILLE     FAIR      31  24  75 CALM      30.24S
JACKSON TN     CLEAR     29  26  89 CALM      30.26F
LEWISBURG      FAIR      29  25  85 CALM      30.26S
MEMPHIS        CLEAR     38  26  62 E7        30.22F WCI  33
MURFREESBORO   FAIR      31  25  78 CALM      30.28R
NASHVILLE      CLEAR     34  23  64 N5        30.29R WCI  30
OXFORD MS      FAIR      30  27  86 CALM      30.25S
ROME           CLEAR     36  26  67 N7        30.19  WCI  30
TUPELO         CLEAR     33  28  81 NE5       30.24S WCI  29
TUSCALOOSA     CLEAR     37  28  70 N6        30.22S WCI  32
$$

...GULF COAST WEATHER...

CITY           SKY/WX    TMP DP  RH WIND       PRES   REMARKS
GULFPORT       CLEAR     44  33  65 N3        30.16S
PASCAGOULA     CLEAR     41  32  70 NE5       30.16F
MOBILE         CLEAR     42  31  64 N10       30.16F
GULF SHORES    SUNNY     41  33  73 NE3       30.16S
PENSACOLA      CLEAR     45  34  65 N8        30.15R
DESTIN         CLEAR     47  33  58 NE10G18   30.15R
PANAMA CITY    CLEAR     46  38  76 N12G18    30.14R
APPALACHICOLA  CLEAR     48  36  63 N13       30.12R
$$




USA.gov is the U.S. government's official web portal to all federal, state and local government web resources and services.